Indianapolis, IN

9:47 AM EDT on July 21, 2017 (GMT -0400)
Indianapolis International

Weather History for KIND - November, 2013

Change the Weather History Date:

Monday, November 11, 2013

  Actual Average Record
Temperature  
Mean Temperature 41 °F 46 °F  
Max Temperature 50 °F 55 °F 76 °F (1927)
Min Temperature 31 °F 37 °F 18 °F (1995)
Degree Days  
Heating Degree Days 24 19  
Month to date heating degree days 210 189  
Since 1 July heating degree days 590 590  
Cooling Degree Days 0 0  
Month to date cooling degree days 0 0  
Year to date cooling degree days 1160 1065  
Moisture  
Dew Point 33 °F    
Average Humidity 71    
Maximum Humidity 89    
Minimum Humidity 52    
Precipitation  
Precipitation 0.05 in 0.12 in 1.63 in (1879)
Month to date precipitation 0.40 1.27  
Year to date precipitation 38.65 36.84  
Snow  
Snow 0.10 in 0.00 in 1.20 in (1995)
Month to date snowfall 0.1 0.1  
Since 1 July snowfall 0.1 0.5  
Since 1 September snowfall 0.1 0.5  
Snow Depth 0.00 in    
Sea Level Pressure  
Sea Level Pressure 30.22 in    
Wind  
Wind Speed 11 mph (WNW)    
Max Wind Speed 24 mph    
Max Gust Speed 29 mph    
Visibility 8 miles    
Events Rain , Snow    
T = Trace of Precipitation, MM = Missing Value Source: NWS Daily Summary

Daily Weather History Graph

Daily Weather History Graph

Search for Another Location

Airport or City:

Trip Planner

Search our weather history database for the weather conditions in past years. The results will help you decide how hot, cold, wet, or windy it might be!

Date:

Astronomy

Nov. 11, 2013 Rise Set
Actual Time 7:25 AM EST 5:32 PM EST
Civil Twilight 6:56 AM EST 6:01 PM EST
Nautical Twilight 6:24 AM EST 6:33 PM EST
Astronomical Twilight 5:52 AM EST 7:05 PM EST
Moon 2:12 PM EST (11/11) 1:10 AM EST (11/11)
Length of Visible Light 11h 04m
Length of Day
10h 07m
Waxing Gibbous, 66% of the Moon is Illuminated
Nov 11
Waxing Gibbous
Nov 17
Full
Nov 25
Last Quarter
Dec 2
New
Dec 9
First Quarter

Hourly Weather History & Observations

Time (EST) Temp. Windchill Dew Point Humidity Pressure Visibility Wind Dir Wind Speed Gust Speed Precip Events Conditions
12:54 AM 35.1 °F 32.2 °F 28.0 °F 76% 30.29 in 10.0 mi South 3.5 mph - N/A   Scattered Clouds
1:54 AM 32.0 °F 26.4 °F 28.0 °F 85% 30.29 in 10.0 mi WSW 5.8 mph - N/A   Scattered Clouds
2:54 AM 32.0 °F 28.7 °F 27.0 °F 82% 30.29 in 10.0 mi SSW 3.5 mph - N/A   Scattered Clouds
3:54 AM 34.0 °F 29.8 °F 28.9 °F 82% 30.27 in 10.0 mi WSW 4.6 mph - N/A   Overcast
4:54 AM 36.0 °F 32.1 °F 30.0 °F 79% 30.24 in 10.0 mi SSE 4.6 mph - N/A   Overcast
5:54 AM 37.0 °F 32.4 °F 30.9 °F 79% 30.26 in 10.0 mi SSW 5.8 mph - N/A   Overcast
6:54 AM 37.9 °F 33.5 °F 30.9 °F 76% 30.25 in 10.0 mi South 5.8 mph - N/A   Overcast
7:54 AM 39.0 °F 33.4 °F 30.9 °F 73% 30.24 in 10.0 mi SSW 8.1 mph - N/A   Mostly Cloudy
8:54 AM 39.9 °F 32.1 °F 32.0 °F 73% 30.22 in 10.0 mi SSW 13.8 mph - N/A Rain Light Rain
9:54 AM 43.0 °F 35.4 °F 32.0 °F 65% 30.21 in 10.0 mi SSW 16.1 mph - N/A   Mostly Cloudy
10:54 AM 46.0 °F 39.9 °F 33.1 °F 61% 30.18 in 10.0 mi SSW 13.8 mph - N/A   Mostly Cloudy
11:54 AM 46.9 °F - 30.9 °F 54% 30.17 in 10.0 mi WSW 13.8 mph - N/A   Overcast
12:54 PM 48.0 °F - 33.1 °F 56% 30.14 in 10.0 mi SW 11.5 mph - N/A   Overcast
1:54 PM 50.0 °F - 33.1 °F 52% 30.12 in 10.0 mi SW 15.0 mph - N/A   Overcast
2:54 PM 50.0 °F - 35.1 °F 57% 30.12 in 10.0 mi WSW 11.5 mph - N/A   Overcast
3:54 PM 48.9 °F - 37.9 °F 66% 30.11 in 10.0 mi West 13.8 mph 23.0 mph N/A   Overcast
4:54 PM 48.9 °F - 37.9 °F 66% 30.12 in 10.0 mi West 9.2 mph - N/A   Overcast
5:54 PM 48.0 °F - 39.0 °F 71% 30.12 in 10.0 mi West 10.4 mph - N/A   Overcast
6:15 PM 46.4 °F 41.5 °F 39.2 °F 76% 30.12 in 10.0 mi WNW 10.4 mph - N/A   Overcast
6:54 PM 43.0 °F 35.7 °F 39.0 °F 86% 30.17 in 6.0 mi North 15.0 mph - N/A Rain Light Rain
7:05 PM 42.8 °F 35.1 °F 39.2 °F 87% 30.16 in 8.0 mi North 16.1 mph 24.2 mph N/A Rain Light Rain
7:34 PM 41.0 °F 32.8 °F 37.4 °F 87% 30.17 in 10.0 mi North 16.1 mph 24.2 mph N/A   Overcast
7:54 PM 39.9 °F 32.1 °F 36.0 °F 86% 30.20 in 10.0 mi North 13.8 mph 24.2 mph N/A Rain Light Rain
8:51 PM 37.4 °F 27.8 °F 33.8 °F 87% 30.22 in 10.0 mi NNE 17.3 mph - N/A Rain Light Rain
8:54 PM 37.0 °F 27.4 °F 33.1 °F 86% 30.25 in 10.0 mi NNE 17.3 mph 24.2 mph N/A Rain Light Rain
9:54 PM 34.0 °F 24.6 °F 30.9 °F 89% 30.29 in 7.0 mi North 13.8 mph 23.0 mph N/A Snow Light Snow
10:16 PM 33.8 °F 24.3 °F 30.2 °F 87% 30.29 in 2.5 mi North 13.8 mph - N/A Snow Light Snow
10:35 PM 33.8 °F 24.3 °F 30.2 °F 87% 30.30 in 3.0 mi North 13.8 mph - N/A Snow Light Snow
10:42 PM 33.8 °F 25.8 °F 30.2 °F 87% 30.30 in 2.0 mi North 10.4 mph 20.7 mph N/A Snow Light Snow
10:54 PM 33.1 °F 22.2 °F 30.0 °F 89% 30.32 in 2.0 mi NNE 17.3 mph 23.0 mph N/A Snow Light Snow
11:00 PM 32.0 °F 20.5 °F 28.4 °F 87% 30.31 in 1.5 mi NNE 18.4 mph 24.2 mph N/A Snow Light Snow
11:42 PM 30.2 °F 18.9 °F 28.4 °F 93% 30.33 in 2.5 mi North 16.1 mph 27.6 mph N/A Snow Light Snow
11:54 PM 30.9 °F 19.1 °F 27.0 °F 85% 30.36 in 5.0 mi North 18.4 mph 25.3 mph N/A Snow Light Snow